Location: Newark
(11.2914°S, 14.4718°E)
Time: 04:56:08
(UTC+00:00)

Transit 2A Rocket - All Passes

Search period start: 15 October 2019 00:00
Search period end: 25 October 2019 00:00
Orbit: 593 x 910 km, 66.7° (Epoch: 14 October)

Date Brightness Start Highest point End Pass type
(mag) Time Alt. Az. Time Alt. Az. Time Alt. Az.
15 Oct - 03:21:11 10° SSW 03:27:14 83° WNW 03:32:51 10° NNE visible
15 Oct - 15:57:18 10° NNW 16:01:56 74° WSW 16:07:03 10° SSE daylight
16 Oct - 02:38:53 10° S 02:44:43 51° ESE 02:50:11 10° NE visible
16 Oct - 04:24:23 10° W 04:26:49 13° WNW 04:29:11 10° NW daylight
16 Oct - 15:15:03 10° N 15:19:30 49° ENE 15:24:24 10° SE daylight
17 Oct - 01:57:09 10° S 02:02:06 26° ESE 02:06:48 10° ENE visible
17 Oct - 03:39:39 10° SW 03:44:30 26° WNW 03:49:06 10° NNW visible
17 Oct - 14:33:36 10° NNE 14:37:11 22° ENE 14:41:00 10° SE daylight
17 Oct - 16:15:57 10° WNW 16:19:31 21° WSW 16:23:20 10° SSW daylight
18 Oct - 01:16:35 10° SE 01:19:23 13° ESE 01:22:08 10° E visible
18 Oct - 02:56:20 10° SSW 03:02:09 52° WNW 03:07:33 10° N visible
18 Oct - 15:32:25 10° NW 15:36:53 43° WSW 15:41:47 10° S daylight
19 Oct - 02:13:41 10° SSW 02:19:42 79° ESE 02:25:17 10° NNE visible
19 Oct - 14:49:43 10° NNW 14:54:22 84° ENE 14:59:32 10° SSE daylight
20 Oct - 01:31:34 10° S 01:37:09 40° ESE 01:42:24 10° NE night (unlit)
20 Oct - 03:15:49 10° WSW 03:19:20 16° WNW 03:22:44 10° NW night (unlit)
20 Oct - 14:07:42 10° N 14:11:59 37° ENE 14:16:40 10° SE daylight
20 Oct - 15:52:25 10° W 15:54:35 13° WSW 15:56:52 10° SW daylight
21 Oct - 00:50:06 10° SSE 00:54:31 21° ESE 00:58:43 10° ENE night (unlit)
21 Oct - 02:31:47 10° SW 02:37:01 33° WNW 02:41:56 10° N night (unlit)
21 Oct - 13:26:39 10° NE 13:29:42 17° ENE 13:32:53 10° ESE daylight
21 Oct - 15:07:52 10° WNW 15:11:53 27° WSW 15:16:15 10° S daylight
22 Oct - 00:11:05 10° SE 00:11:45 10° ESE 00:12:25 10° ESE night (unlit)
22 Oct - 01:48:43 10° SSW 01:54:38 67° WNW 02:00:07 10° N night (unlit)
22 Oct - 14:24:40 10° NNW 14:29:18 58° WSW 14:34:25 10° S daylight
23 Oct - 01:06:14 10° SSW 01:12:10 63° ESE 01:17:40 10° NNE night (unlit)
23 Oct - 13:42:12 10° N 13:46:50 64° ENE 13:51:58 10° SSE daylight
24 Oct - 00:24:18 10° S 00:29:35 32° ESE 00:34:32 10° NE night (unlit)
24 Oct - 02:07:36 10° WSW 02:11:52 21° WNW 02:15:55 10° NNW night (unlit)
24 Oct - 13:00:27 10° NNE 13:04:29 28° ENE 13:08:50 10° SE daylight
24 Oct - 14:43:49 10° WNW 14:46:57 17° WSW 14:50:16 10° SSW daylight
24 Oct - 23:43:14 10° SSE 23:46:54 17° ESE 23:50:24 10° ENE night (unlit)
